STARLINK-1635, 46172

Orbit data source: Space-Track

STARLINK-1635, 46172 is a payload satellite owned by SpaceX/Seattle (US) in LEO that was launched on Tue, 18 Aug 2020 UTC via an FALCON 9 launch vehicle from the Air Force Eastern Test Range (AFETR). Payloads include a variety of satellites, spacecraft, and rockets equipped with specific instruments for various scientific and technological missions. These include communications satellites like Starlink; space stations such as the ISS; scientific satellites like the Hubble; Earth observation satellites from companies like Planet Labs, Umbra, and HawkEye 360; GPS; miniature CubeSats for education and research; and military/defense satellites.

Loading next visibility...
STARLINK-1635 details
Identifier
46172, 2020-057BH
Orbit
LEO
Last TLE update6 hours ago
Origin
Flag of USSpaceX/Seattle (US)
ManufacturerSpaceX/Seattle
MissionOperational Commercial Communications
Bus & MotorSTARLINK, Unknown motor
Mass260 kg wet, ~248 kg dry
Launch date (UTC)
2020-08-18 (4 years ago)
Launch vehicle
FALCON 9
Launch site
Air Force Eastern Test Range (AFETR)
Object type
Payload
Rocket body
Debris
Shape & HBRBox + 1 Pan, 8.86 m
Radar Cross Section13.562 m², Large (>1 m²)

Expand to show TLE details & history

TLE from 6 hours ago
0 STARLINK-1635
1 46172U 20057BH  24339.93654864 -.00003639  00000-0 -22553-3 0  9993
2 46172  53.0528 200.5274 0001552  84.0884 276.0282 15.06400198238307
Epoch: 2024-12-04T22:28Z
Definitive object data (Epoch: 2024-12-04T22:28:37.802Z)
Latitude-0.00001°
Longitude149.14534°
Altitude547.977 km
Speed7.589 km/s
True Right ascension13h 22m 06s
True Declination0° 00' 00"
Sunlit
Object was in daylight at TLE epoch
Visualization TLE readout
Latitude-29.2286°
Longitude-7.18645°
Altitude556.776 km
Speed7.583 km/s
Apparent Right ascension05h 29m 16s
Apparent Declination-77° 51' 57"
Sunlit
Object is in full shadow
Visualization observer readout
Local Sidereal Time02:10:16
Azimuth169.15° S
Elevation-31.544°
Doppler factor1
Orbital elements
Apogee altitude548.557 km
Perigee altitude546.407 km
Semi-major axis6,925.619 km
Eccentricity0.0001552
Inclination53.0528°
RAAN200.5274°
Arg. of periapsis84.0884°
True anomaly276.01051°
Mean anomaly276.0282°
Eccentric anomaly276.01936°
Mean motion3.76578 °/min
BSTAR-0.00022553
Orbital period95.6 mins
Loading maneuver chart data...
Loading historical data...
Loading historical data...
Loading historical data...
Loading historical data...
Loading historical data...
Loading historical data...
Loading historical data...

STARLINK-1635 Visibility forecast

Observer location: undefined°, undefined

Span
Click to sort rows by Start time (UTC) header in descending order
Start Az.
Max El. time (UTC)
Max El. Az.
Max El.
End time (UTC)
End Az.
6 mins2024-12-05 17:46:54.215Z234.484° WSW2024-12-05 17:49:54.215Z27.141° NE42.98°2024-12-05 17:52:54.215Z48.058° ENE
4 mins2024-12-05 19:27:54.215Z309.284° NW2024-12-05 19:29:54.215Z347.857° N18.677°2024-12-05 19:31:54.215Z21.01° NNE
5 mins2024-12-05 22:48:54.215Z341.85° N2024-12-05 22:50:54.215Z18.538° NNE20.532°2024-12-05 22:53:54.215Z70.937° E
6 mins2024-12-06 00:28:54.215Z306.658° NW2024-12-06 00:30:54.215Z257.961° W44.663°2024-12-06 00:34:54.215Z133.955° SE
|